W2GUX Weather Reports


Display with metric or nautical units.
time (UTC)temp
F
wind
direction
speed
MPH
gust
MPH
rain 1hr
in
rain 24hr
in
rain mn
in
humidity
%
barometer
mb
20260504050503 49 187 2.0 4.0 0.00 0.00 0.00 48 1010.2
20260504050003 49 200 2.0 5.0 0.00 0.00 0.00 47 1010.2
20260504045503 49 193 3.0 6.0 0.00 0.00 0.00 47 1010.2
20260504045004 49 191 2.0 6.0 0.00 0.00 0.00 47 1010.2
20260504044504 49 193 1.0 6.0 0.00 0.00 0.00 47 1010.2
20260504044003 49 184 2.0 6.0 0.00 0.00 0.00 48 1010.1
20260504043503 49 181 1.0 6.0 0.00 0.00 0.00 48 1010.0
20260504043003 48 189 0.0 4.0 0.00 0.00 0.00 49 1009.9
20260504042503 48 220 1.0 6.0 0.00 0.00 0.00 49 1009.8
20260504042004 48 237 1.0 6.0 0.00 0.00 0.00 49 1009.8
20260504041504 48 302 0.0 2.0 0.00 0.00 0.00 50 1009.7
20260504041003 48 308 0.0 3.0 0.00 0.00 0.00 51 1009.7
20260504040503 47 318 0.0 3.0 0.00 0.00 0.00 51 1009.7
20260504040004 47 335 0.0 2.0 0.00 0.00 0.00 51 1009.6
20260504035503 47 342 0.0 1.0 0.00 0.00 0.00 52 1009.6
20260504035003 47 0 0.0 0.0 0.00 0.00 0.00 52 1009.6
20260504034503 47 343 0.0 2.0 0.00 0.00 0.00 53 1009.6
20260504034004 47 343 0.0 2.0 0.00 0.00 0.00 53 1009.6
20260504033504 47 343 0.0 3.0 0.00 0.00 0.00 52 1009.5
20260504033003 47 343 0.0 3.0 0.00 0.00 0.00 53 1009.6
20260504032503 46 343 0.0 2.0 0.00 0.00 0.00 52 1009.7
20260504032003 46 343 0.0 2.0 0.00 0.00 0.00 54 1009.6
20260504031504 46 343 0.0 2.0 0.00 0.00 0.00 58 1009.6
20260504031003 46 0 0.0 0.0 0.00 0.00 0.00 58 1009.6
20260504030504 46 0 0.0 0.0 0.00 0.00 0.00 59 1009.6
20260504030003 46 0 0.0 0.0 0.00 0.00 0.00 59 1009.5
20260504025503 46 0 0.0 0.0 0.00 0.00 0.00 59 1009.5
20260504025004 47 0 0.0 0.0 0.00 0.00 0.00 60 1009.5
20260504024503 47 0 0.0 0.0 0.00 0.00 0.00 60 1009.5
20260504024003 47 0 0.0 0.0 0.00 0.00 0.00 59 1009.5
20260504023503 47 0 0.0 0.0 0.00 0.00 0.00 58 1009.4
20260504023003 48 0 0.0 0.0 0.00 0.00 0.00 58 1009.5
20260504022503 48 0 0.0 0.0 0.00 0.00 0.00 57 1009.5
20260504022003 48 0 0.0 0.0 0.00 0.00 0.00 56 1009.5
20260504021504 48 0 0.0 0.0 0.00 0.00 0.00 55 1009.5
20260504021003 48 0 0.0 0.0 0.00 0.00 0.00 54 1009.5
20260504020503 49 0 0.0 0.0 0.00 0.00 0.00 54 1009.5
20260504020004 49 0 0.0 0.0 0.00 0.00 0.00 54 1009.5
20260504015504 49 0 0.0 0.0 0.00 0.00 0.00 53 1009.5
20260504015003 50 0 0.0 0.0 0.00 0.00 0.00 52 1009.4
20260504014503 50 0 0.0 0.0 0.00 0.00 0.00 52 1009.4
20260504014003 50 0 0.0 0.0 0.00 0.00 0.00 51 1009.3
20260504013503 50 0 0.0 0.0 0.00 0.00 0.00 49 1009.2
20260504013004 51 0 0.0 0.0 0.00 0.00 0.00 47 1009.2
20260504012504 51 0 0.0 0.0 0.00 0.00 0.00 46 1009.2
20260504012003 52 0 0.0 0.0 0.00 0.00 0.00 46 1009.2
20260504011503 52 0 0.0 0.0 0.00 0.00 0.00 45 1009.2
20260504011003 52 0 0.0 0.0 0.00 0.00 0.00 44 1009.1
20260504010503 53 0 0.0 0.0 0.00 0.00 0.00 42 1009.0
20260504010004 54 0 0.0 0.0 0.00 0.00 0.00 42 1008.9
20260504005503 54 0 0.0 0.0 0.00 0.00 0.00 41 1008.8
20260504005004 54 0 0.0 0.0 0.00 0.00 0.00 40 1008.7
20260504004503 55 0 0.0 0.0 0.00 0.00 0.00 38 1008.7
20260504004004 55 0 0.0 0.0 0.00 0.00 0.00 38 1008.7
20260504003504 56 0 0.0 0.0 0.00 0.00 0.00 36 1008.6
20260504003004 56 0 0.0 0.0 0.00 0.00 0.00 35 1008.6
20260504002503 57 343 0.0 2.0 0.00 0.00 0.00 33 1008.4
20260504002003 57 344 0.0 2.0 0.00 0.00 0.00 29 1008.3
20260504001504 57 341 0.0 6.0 0.00 0.00 0.00 28 1008.2
20260504001004 58 340 0.0 6.0 0.00 0.00 0.00 27 1008.2
20260504000503 58 336 0.0 2.0 0.00 0.00 0.00 28 1008.1
20260504000003 58 336 0.0 2.0 0.00 0.00 0.00 27 1008.1
20260503235504 58 330 1.0 6.0 0.00 0.00 0.00 27 1008.1
20260503235003 58 331 1.0 6.0 0.00 0.00 0.00 26 1008.0
20260503234504 58 346 1.0 6.0 0.00 0.00 0.00 26 1007.9
20260503234004 59 356 1.0 7.0 0.00 0.00 0.00 27 1007.8
20260503233503 59 346 0.0 7.0 0.00 0.00 0.00 26 1007.8
20260503233004 59 292 1.0 6.0 0.00 0.00 0.00 26 1007.7
20260503232503 59 258 1.0 4.0 0.00 0.00 0.00 25 1007.6
20260503232004 59 246 1.0 5.0 0.00 0.00 0.00 25 1007.6
20260503231504 59 283 1.0 5.0 0.00 0.00 0.00 25 1007.6
20260503231003 60 341 1.0 5.0 0.00 0.00 0.00 24 1007.5
20260503230503 60 319 1.0 7.0 0.00 0.00 0.00 23 1007.6
20260503230004 60 297 2.0 7.0 0.00 0.00 0.00 24 1007.6
20260503225504 60 321 2.0 6.0 0.00 0.00 0.00 24 1007.4
20260503225003 60 320 2.0 11.0 0.00 0.00 0.00 23 1007.4
20260503224503 60 308 2.0 11.0 0.00 0.00 0.00 23 1007.4
20260503224003 60 331 2.0 7.0 0.00 0.00 0.00 23 1007.5
20260503223503 60 355 2.0 7.0 0.00 0.00 0.00 24 1007.3
20260503223004 60 1 2.0 6.0 0.00 0.00 0.00 24 1007.2
20260503222503 60 9 2.0 8.0 0.00 0.00 0.00 24 1007.3
20260503222004 60 359 3.0 8.0 0.00 0.00 0.00 22 1007.3
20260503221503 60 335 3.0 11.0 0.00 0.00 0.00 23 1007.4
20260503221003 60 291 3.0 11.0 0.00 0.00 0.00 23 1007.4
20260503220503 60 293 4.0 10.0 0.00 0.00 0.00 22 1007.5
20260503220003 60 336 3.0 10.0 0.00 0.00 0.00 22 1007.4
20260503215503 60 315 4.0 11.0 0.00 0.00 0.00 21 1007.5
20260503215003 60 308 4.0 16.0 0.00 0.00 0.00 22 1007.5
20260503214503 60 324 4.0 16.0 0.00 0.00 0.00 22 1007.5
20260503214003 60 319 4.0 17.0 0.00 0.00 0.00 22 1007.4
20260503213504 60 321 4.0 17.0 0.00 0.00 0.00 21 1007.6
20260503213003 60 320 4.0 10.0 0.00 0.00 0.00 22 1007.4
20260503212504 60 330 4.0 17.0 0.00 0.00 0.00 22 1007.3
20260503212003 60 343 4.0 17.0 0.00 0.00 0.00 22 1007.4
20260503211504 60 307 5.0 13.0 0.00 0.00 0.00 22 1007.4
20260503211003 60 301 5.0 13.0 0.00 0.00 0.00 21 1007.5
20260503210504 60 320 5.0 16.0 0.00 0.00 0.00 23 1007.3
20260503210004 60 289 5.0 18.0 0.00 0.00 0.00 22 1007.3
20260503205504 60 298 4.0 18.0 0.00 0.00 0.00 22 1007.4
20260503205003 60 308 4.0 14.0 0.00 0.00 0.00 22 1007.5
20260503204504 60 314 5.0 16.0 0.00 0.00 0.00 22 1007.4
20260503204003 60 326 5.0 16.0 0.00 0.00 0.00 23 1007.5
20260503203503 60 313 5.0 17.0 0.00 0.00 0.00 22 1007.5
20260503203003 60 296 4.0 17.0 0.00 0.00 0.00 22 1007.4
20260503202503 60 291 3.0 11.0 0.00 0.00 0.00 22 1007.4
20260503202004 60 309 3.0 11.0 0.00 0.00 0.00 23 1007.5
20260503201503 59 322 4.0 13.0 0.00 0.00 0.00 24 1007.4
20260503201004 59 340 5.0 16.0 0.00 0.00 0.00 23 1007.6
20260503200503 60 345 4.0 16.0 0.00 0.00 0.00 22 1007.7
20260503200004 60 301 4.0 13.0 0.00 0.00 0.00 23 1007.6
20260503195503 59 315 5.0 18.0 0.00 0.00 0.00 22 1007.7
20260503195003 59 341 4.0 18.0 0.00 0.00 0.00 23 1007.7
20260503194503 59 342 5.0 17.0 0.00 0.00 0.00 23 1007.6
20260503194004 59 344 4.0 17.0 0.00 0.00 0.00 23 1007.9
20260503193503 59 342 3.0 14.0 0.00 0.00 0.00 25 1007.9
20260503193004 59 308 5.0 15.0 0.00 0.00 0.00 25 1007.9
20260503192503 59 322 5.0 15.0 0.00 0.00 0.00 24 1008.1
20260503192003 59 353 5.0 14.0 0.00 0.00 0.00 24 1007.9
20260503191504 59 323 5.0 14.0 0.00 0.00 0.00 24 1008.1
20260503191003 59 295 5.0 19.0 0.00 0.00 0.00 25 1008.0
20260503190504 59 317 5.0 19.0 0.00 0.00 0.00 23 1008.1
20260503190003 59 347 5.0 12.0 0.00 0.00 0.00 26 1008.0
20260503185504 58 346 5.0 17.0 0.00 0.00 0.00 25 1008.0
20260503185003 59 329 6.0 20.0 0.00 0.00 0.00 24 1008.2
20260503184503 60 329 5.0 20.0 0.00 0.00 0.00 24 1008.2
20260503184003 59 327 4.0 20.0 0.00 0.00 0.00 26 1008.0
20260503183503 59 314 4.0 17.0 0.00 0.00 0.00 25 1008.3
20260503183003 58 325 4.0 12.0 0.00 0.00 0.00 27 1008.2
20260503182504 58 333 5.0 17.0 0.00 0.00 0.00 26 1008.2
20260503182005 58 321 5.0 17.0 0.00 0.00 0.00 27 1008.2
20260503181504 58 298 5.0 14.0 0.00 0.00 0.00 26 1008.4
20260503181004 57 316 4.0 14.0 0.00 0.00 0.00 26 1008.3
20260503180503 58 334 4.0 13.0 0.00 0.00 0.00 26 1008.5
20260503180004 57 351 5.0 13.0 0.00 0.00 0.00 28 1008.4
20260503175503 56 343 4.0 13.0 0.00 0.00 0.00 27 1008.4
20260503175004 56 317 5.0 12.0 0.00 0.00 0.00 28 1008.6
20260503174504 57 336 5.0 15.0 0.00 0.00 0.00 27 1008.7
20260503174003 56 334 4.0 15.0 0.00 0.00 0.00 30 1008.7
20260503173003 56 309 3.0 14.0 0.00 0.00 0.00 27 1008.7
20260503172504 56 310 3.0 11.0 0.00 0.00 0.00 29 1008.7
20260503172004 56 312 4.0 11.0 0.00 0.00 0.00 29 1008.7
20260503171503 56 296 5.0 16.0 0.00 0.00 0.00 28 1008.8
20260503171003 55 292 4.0 16.0 0.00 0.00 0.00 31 1008.9
20260503170503 55 307 3.0 11.0 0.00 0.00 0.00 33 1009.0
20260503151003 54 338 3.0 17.0 0.00 0.00 0.00 29 1009.2
20260503150503 54 340 3.0 7.0 0.00 0.00 0.00 29 1009.2
20260503131003 48 331 5.0 16.0 0.00 0.00 0.00 47 1009.4
20260503130503 48 353 4.0 12.0 0.00 0.00 0.00 48 1009.4
20260503110503 44 350 3.0 12.0 0.00 0.00 0.00 54 1009.0
20260503090503 45 356 3.0 7.0 0.00 0.00 0.00 48 1007.8
20260503081504 46 336 2.0 5.0 0.00 0.01 0.00 49 1007.9
20260503081003 46 358 1.0 3.0 0.00 0.01 0.00 49 1007.8
20260503080503 46 358 2.0 6.0 0.00 0.01 0.00 51 1007.8
20260503072504 45 21 0.0 3.0 0.00 0.01 0.00 54 1007.7
20260503072003 45 0 0.0 0.0 0.00 0.01 0.00 55 1007.7
20260503071503 45 0 0.0 0.0 0.00 0.01 0.00 55 1007.7
20260503071003 46 0 0.0 0.0 0.00 0.01 0.00 54 1007.7
20260503070504 46 0 0.0 0.0 0.00 0.01 0.00 53 1007.8